Temperature
1 1 1 1 1 1 1 1 1 2 2 2 2 2 2 2 2 2 2 2 2 2 2 2 2 2 2 2 2 2 2 1 1 1 1 1 1 1 1 1 1 1 2
0 0 0 1 1 1 1 1 1 1 1 1 1 1 1 1 1 1 1 1 1 1 1 1 1 1 1 1 1 1 1 1 1 1 1 1 1 1 1 1 1 1 1
-1 -1 -0 -0 0 0 0 0 0 1 1 1 0 1 1 1 1 1 1 1 1 1 1 1 1 1 1 1 1 1 0 0 0 0 0 0 0 0 0 0 0 0 0
-1 -1 -1 -1 -1 -0 -0 -0 0 0 0 0 0 0 0 0 1 1 0 0 0 0 0 0 0 0 0 0 0 -0 -0 -0 -0 -0 -1 -1 -0 -0 -1 -0 -0 -0 -0
-2 -2 -2 -1 -1 -1 -1 -1 -0 -0 -0 -0 -0 -0 -0 -0 -0 0 -0 -0 -0 -0 -0 -0 -0 0 -0 -0 -0 -0 -1 -1 -1 -1 -1 -1 -1 -1 -1 -1 -1 -1 -1
-2 -2 -2 -2 -2 -2 -2 -1 -1 -1 -1 -1 -1 -1 -1 -1 -1 -1 -1 -1 -1 -1 -1 -0 -1 -1 -1 -1 -1 -1 -1 -1 -1 -1 -1 -1 -1 -1 -1 -1 -1 -2 -2
-3 -3 -3 -3 -2 -2 -2 -2 -2 -2 -1 -1 -1 -1 -1 -1 -1 -1 -1 -1 -1 -1 -1 -1 -1 -1 -1 -1 -1 -2 -2 -2 -2 -2 -2 -2 -2 -2 -2 -2 -2 -2 -2
-3 -3 -3 -3 -3 -3 -3 -3 -2 -2 -2 -2 -2 -2 -2 -2 -2 -2 -2 -2 -2 -2 -2 -2 -2 -2 -2 -2 -2 -2 -2 -2 -2 -2 -2 -2 -2 -2 -2 -2 -3 -3 -3
-4 -3 -3 -3 -3 -3 -3 -3 -3 -3 -3 -3 -3 -3 -3 -2 -2 -2 -3 -3 -3 -2 -2 -2 -2 -2 -2 -2 -2 -2 -3 -3 -3 -3 -3 -3 -3 -3 -3 -4 -4 -4 -4
-4 -4 -4 -4 -4 -4 -4 -4 -4 -4 -4 -4 -4 -4 -4 -3 -3 -3 -3 -3 -3 -3 -3 -3 -3 -3 -3 -3 -3 -3 -3 -3 -3 -4 -3 -4 -4 -4 -4 -4 -5 -5 -5
-5 -5 -4 -5 -5 -5 -5 -5 -5 -5 -5 -5 -5 -5 -4 -4 -4 -4 -4 -4 -4 -4 -4 -4 -4 -4 -4 -4 -4 -4 -4 -4 -4 -4 -4 -4 -5 -5 -5 -5 -5 -5 -5
-5 -5 -5 -5 -5 -5 -5 -5 -5 -6 -6 -6 -5 -5 -5 -5 -5 -5 -4 -5 -5 -5 -5 -5 -4 -4 -4 -4 -4 -4 -5 -5 -5 -5 -5 -5 -5 -6 -5 -5 -6 -6 -6
-6 -6 -6 -6 -6 -6 -6 -6 -6 -6 -6 -6 -6 -6 -6 -5 -5 -5 -5 -5 -5 -5 -5 -5 -5 -5 -5 -5 -5 -5 -6 -6 -6 -6 -6 -6 -6 -6 -6 -6 -6 -6 -6
-7 -7 -7 -7 -7 -7 -7 -7 -7 -7 -7 -7 -7 -7 -6 -6 -6 -6 -6 -6 -6 -6 -6 -6 -6 -6 -6 -6 -6 -6 -6 -6 -6 -7 -7 -7 -7 -7 -7 -7 -7 -7 -7
-7 -7 -7 -7 -7 -7 -7 -7 -7 -7 -7 -7 -7 -7 -7 -7 -7 -6 -6 -6 -6 -6 -6 -7 -7 -7 -7 -7 -7 -7 -7 -7 -7 -7 -8 -8 -8 -7 -7 -7 -8 -8 -8
-8 -8 -8 -8 -8 -8 -8 -8 -8 -8 -8 -8 -7 -7 -7 -7 -7 -7 -7 -7 -7 -7 -7 -7 -7 -7 -7 -8 -8 -8 -8 -8 -8 -8 -8 -8 -8 -8 -8 -8 -8 -8 -8
-9 -9 -9 -9 -8 -8 -8 -8 -8 -8 -8 -8 -8 -8 -8 -8 -8 -8 -8 -7 -7 -7 -8 -8 -8 -8 -8 -8 -8 -8 -8 -8 -9 -9 -9 -9 -9 -9 -9 -9 -9 -9 -9
-9 -9 -9 -9 -9 -9 -9 -9 -9 -9 -9 -9 -9 -8 -8 -8 -9 -8 -8 -8 -8 -8 -8 -8 -8 -8 -9 -9 -9 -9 -9 -9 -9 -9 -9 -9 -10 -10 -10 -10 -10 -10 -10
-10 -10 -10 -10 -10 -10 -10 -10 -10 -9 -9 -9 -9 -9 -9 -9 -9 -9 -9 -9 -9 -9 -9 -9 -9 -9 -9 -9 -9 -9 -9 -9 -10 -10 -10 -10 -10 -11 -11 -11 -11 -11 -11
-10 -10 -10 -10 -10 -10 -10 -10 -10 -10 -10 -10 -10 -10 -10 -10 -10 -10 -10 -9 -9 -9 -9 -9 -10 -10 -10 -10 -10 -10 -10 -10 -10 -10 -11 -11 -11 -11 -11 -11 -11 -11 -11
-11 -10 -10 -10 -10 -10 -10 -10 -10 -10 -10 -10 -10 -10 -10 -10 -10 -10 -10 -10 -10 -10 -10 -10 -10 -10 -10 -11 -11 -11 -11 -11 -11 -11 -11 -11 -11 -12 -12 -12 -12 -12 -12
-11 -11 -11 -11 -11 -11 -11 -11 -11 -11 -11 -11 -11 -11 -11 -11 -11 -11 -11 -11 -11 -11 -11 -11 -11 -11 -11 -11 -11 -11 -12 -12 -12 -12 -12 -12 -12 -12 -12 -12 -12 -13 -13
-11 -11 -11 -11 -11 -11 -11 -11 -11 -11 -11 -11 -11 -11 -11 -11 -11 -11 -11 -11 -11 -11 -11 -11 -11 -12 -12 -12 -12 -12 -12 -12 -12 -12 -12 -13 -13 -13 -13 -13 -13 -13 -13
-12 -12 -12 -12 -11 -11 -11 -11 -11 -12 -12 -12 -12 -12 -12 -12 -12 -12 -12 -12 -12 -12 -12 -12 -12 -12 -12 -12 -13 -13 -13 -13 -13 -13 -13 -13 -13 -13 -13 -13 -14 -14 -14
-12 -12 -12 -12 -12 -12 -12 -12 -12 -12 -12 -12 -12 -12 -12 -12 -12 -13 -13 -13 -13 -13 -13 -13 -13 -13 -13 -13 -13 -13 -13 -13 -13 -14 -14 -14 -14 -14 -14 -14 -14 -14 -14
-13 -13 -13 -13 -12 -12 -12 -12 -12 -12 -13 -13 -13 -13 -13 -13 -13 -13 -13 -13 -13 -13 -13 -13 -13 -13 -13 -13 -13 -14 -14 -14 -14 -14 -14 -14 -14 -14 -14 -15 -15 -15 -15
Wind_Speed
4 4 4 5 5 5 5 6 6 5 6 6 6 6 6 6 6 5 5 5 7 6 6 6 6 5 5 5 4 5 5 5 5 4 3 3 4 5 5 6 7 7 7
4 4 4 4 5 5 6 6 6 6 6 6 7 7 7 7 7 7 7 6 7 8 8 7 7 6 6 6 5 6 6 6 5 5 4 4 5 5 5 5 5 6 6
4 4 4 4 4 5 6 6 6 6 6 7 7 8 8 8 7 8 8 8 7 8 8 8 8 8 8 6 6 6 6 5 5 5 4 3 4 4 5 5 5 5 6
3 3 4 4 5 5 5 6 6 6 7 7 8 8 8 8 8 8 8 8 8 7 8 8 8 9 9 8 7 7 6 6 5 5 5 4 4 4 5 5 5 5 5
3 4 5 5 5 5 5 5 6 6 6 7 7 7 8 7 8 8 8 8 8 7 7 8 8 8 9 8 7 8 7 6 6 6 5 5 5 4 5 5 5 4 5
4 5 4 4 5 5 5 5 5 6 6 6 7 7 7 7 8 10 9 8 7 7 7 7 7 9 9 11 11 10 10 9 8 7 6 7 7 7 6 5 5 4 4
4 4 4 4 4 5 4 5 5 6 6 6 7 7 7 8 9 11 11 8 8 8 7 7 6 7 9 8 9 10 10 11 10 8 9 8 8 7 6 7 6 6 5
4 4 4 4 4 4 4 5 5 4 5 6 6 6 6 7 8 10 10 8 7 7 7 7 7 7 7 7 7 7 6 7 8 7 8 7 7 7 7 6 6 5 3
4 4 4 4 4 4 4 5 4 4 4 5 5 6 6 6 8 8 8 5 6 6 6 6 7 7 8 9 7 6 5 4 5 6 7 7 7 8 7 4 5 4 4
5 4 4 4 4 4 4 4 4 4 4 4 4 5 6 6 6 7 7 4 5 5 4 5 8 8 9 10 7 7 6 5 4 4 5 5 6 7 8 7 6 5 3
4 4 4 3 3 3 3 3 3 3 3 4 4 4 5 5 6 6 6 4 4 4 4 4 5 9 9 10 8 7 7 5 4 4 4 4 3 3 4 5 5 5 4
3 3 3 3 3 2 3 3 3 3 4 3 3 3 3 3 4 5 6 5 5 4 4 4 4 7 8 8 7 6 7 5 3 3 3 4 4 3 2 3 3 3 3
3 2 2 2 2 2 2 3 3 3 3 3 3 3 2 2 3 4 5 5 5 3 3 3 3 4 5 5 5 5 5 4 3 3 4 3 3 3 2 2 2 2 1
2 2 2 1 2 1 1 2 2 3 3 3 3 3 2 2 2 2 2 3 4 3 3 3 3 4 3 3 3 3 3 3 3 3 3 2 2 2 3 3 2 2 1
2 2 2 1 1 1 2 2 2 3 3 3 3 3 3 3 3 4 3 3 3 3 3 2 2 2 2 2 2 2 2 2 2 2 2 2 2 2 2 2 2 2 2
2 2 1 1 1 1 1 1 2 1 2 2 3 2 2 2 2 4 5 5 5 5 4 3 3 3 3 3 2 2 2 2 2 2 2 2 3 3 3 2 2 3 3
2 2 2 1 1 1 1 1 1 2 1 0 1 2 2 2 2 3 4 5 4 5 4 3 3 3 2 2 2 2 2 1 2 2 2 2 2 2 2 3 3 3 2
2 2 2 1 1 1 1 1 1 1 0 0 0 1 1 1 2 2 3 3 2 2 2 3 2 2 2 2 2 2 1 1 1 1 2 2 2 2 2 3 3 3 3
2 2 1 1 1 1 1 1 1 1 1 1 1 1 1 1 1 2 2 2 2 2 2 2 2 2 2 2 1 1 1 1 1 1 1 1 2 2 2 2 2 3 3
2 2 1 1 1 1 1 1 1 1 1 1 1 1 1 1 1 1 1 1 2 2 2 2 1 1 1 2 2 1 1 1 1 1 1 1 1 2 2 2 3 3 3
1 1 1 1 1 1 1 1 1 1 2 1 1 1 2 1 1 1 1 1 1 2 2 2 2 1 1 1 2 2 2 1 2 2 2 2 2 2 2 2 3 3 3
1 1 1 1 1 1 1 1 1 1 1 1 1 1 2 1 1 1 1 1 1 1 1 2 2 1 2 2 2 2 2 2 2 2 2 2 2 2 2 2 2 3 3
1 1 1 1 1 1 1 1 1 1 1 1 1 1 1 1 1 1 1 1 1 1 1 1 1 1 1 1 2 3 3 3 3 3 3 3 2 3 3 3 3 3 3
1 1 1 1 1 1 1 1 1 1 1 1 1 1 1 1 1 1 1 1 1 1 1 1 2 2 2 2 2 3 4 4 4 5 5 4 3 3 3 3 3 4 4
1 1 1 1 1 1 1 1 1 1 1 1 1 1 1 1 1 1 1 1 1 1 1 1 2 2 3 4 4 4 5 5 5 5 5 5 4 4 4 4 4 4 4
1 1 1 1 1 1 1 1 1 1 1 1 1 1 1 1 1 1 1 1 1 1 2 2 3 4 4 4 5 6 6 7 7 7 6 5 4 4 4 4 5 5 5
Wind_Direction
245 239 236 231 226 226 225 224 219 215 208 207 209 211 213 216 214 212 215 214 210 211 211 212 216 214 217 210 211 215 222 225 238 254 248 238 231 238 236 239 236 236 236
249 242 240 239 232 229 228 228 221 218 215 213 213 213 214 215 215 215 216 218 219 215 213 212 216 214 222 216 211 217 220 220 227 240 248 238 240 236 237 240 238 237 238
251 247 248 243 239 236 231 228 225 221 220 219 215 215 216 217 217 219 219 221 224 221 215 214 215 213 219 219 217 219 220 219 226 232 242 248 247 234 239 241 241 239 240
254 255 257 254 244 239 234 228 225 223 221 220 218 218 219 218 217 218 220 223 224 224 220 219 218 215 217 217 218 219 217 218 220 223 233 240 243 235 232 236 243 241 240
259 259 261 263 254 244 238 231 226 224 223 221 219 219 219 218 217 217 217 221 222 223 222 221 221 220 219 220 221 216 212 216 217 218 225 234 233 224 229 232 242 247 246
259 259 264 266 254 244 240 233 226 223 222 219 217 217 216 219 221 221 219 219 221 222 223 222 221 217 218 224 228 224 216 214 217 220 227 228 232 232 230 227 231 236 248
267 265 262 261 259 249 242 233 229 225 221 220 219 218 221 226 224 221 219 220 219 220 223 222 222 222 218 222 226 228 225 225 224 224 229 232 233 228 222 223 227 234 247
271 272 266 258 261 257 242 235 234 231 223 223 224 224 226 230 229 224 217 218 220 221 220 220 222 220 215 214 217 222 226 228 230 231 232 236 238 230 222 225 232 243 264
273 275 275 261 253 251 242 239 237 229 230 228 226 225 227 231 228 223 217 213 215 219 218 220 221 217 211 207 206 210 220 232 231 231 234 234 231 226 216 213 213 220 245
278 279 277 269 259 248 244 239 235 226 227 228 228 227 227 230 222 214 212 210 214 219 223 223 224 221 211 204 202 202 214 222 215 218 225 230 229 224 218 217 216 220 239
288 281 273 268 261 253 250 238 223 220 220 223 227 232 231 230 219 211 210 205 211 216 223 227 226 222 216 211 211 210 211 208 208 210 216 221 222 221 218 216 217 223 228
291 274 266 268 266 254 242 233 215 205 208 216 221 232 235 226 221 214 210 210 208 209 222 232 229 218 212 212 214 208 204 200 193 200 209 213 215 217 211 203 202 209 234
290 277 272 270 268 260 237 222 213 204 206 212 216 222 231 230 223 217 211 212 214 216 224 222 213 199 200 205 204 203 199 192 192 201 212 217 214 201 177 164 158 149 149
281 284 285 272 276 277 250 226 214 207 206 209 212 218 226 226 218 207 208 209 210 214 217 210 206 192 188 188 189 201 207 202 199 209 213 203 184 182 188 183 182 174 190
279 281 280 279 281 285 278 261 246 245 227 216 218 219 215 225 225 209 195 199 200 196 182 179 176 174 184 187 185 190 194 192 196 195 193 189 182 183 190 190 192 191 203
268 274 267 260 263 266 284 334 340 281 276 255 240 237 244 240 218 202 200 195 189 177 169 174 181 188 193 197 199 197 193 196 193 189 190 188 185 189 189 185 188 189 195
258 264 264 257 247 242 231 205 353 12 27 235 212 210 211 202 193 184 182 179 170 162 165 174 177 181 184 187 191 191 194 199 189 186 189 192 188 189 191 190 189 188 191
264 265 261 253 244 235 229 221 204 190 209 271 147 158 158 183 186 168 168 161 165 158 151 161 167 168 171 178 181 182 179 174 176 183 190 191 191 192 193 195 196 191 194
270 266 265 265 249 237 229 219 204 193 183 175 143 117 117 132 158 131 134 154 159 153 147 150 156 158 160 166 170 172 173 179 183 185 195 199 197 195 197 198 197 193 200
270 273 273 256 233 220 212 204 192 182 180 183 193 188 156 147 150 131 112 132 151 153 148 147 148 146 156 166 169 164 167 180 188 195 207 215 217 210 206 206 206 208 213
271 256 252 239 215 208 202 204 203 199 201 207 216 192 163 161 169 161 150 149 155 157 156 154 160 165 172 173 176 178 184 198 207 214 220 222 216 220 225 219 215 214 215
271 259 243 228 222 218 206 202 201 194 188 189 180 162 162 155 162 165 149 133 132 147 164 169 177 187 187 188 190 195 203 211 215 217 221 223 221 222 221 222 223 218 214
265 257 257 241 218 204 196 181 174 174 175 173 162 153 155 164 159 161 161 155 139 143 156 168 181 192 190 201 210 207 212 221 220 215 215 217 220 226 225 221 220 228 226
243 235 236 231 205 195 191 177 167 163 154 141 137 141 149 157 163 170 181 180 164 170 170 179 197 208 219 229 232 225 223 224 221 217 215 215 220 225 225 226 227 227 229
222 218 223 224 210 194 181 167 158 155 154 157 157 159 163 168 182 196 196 183 187 199 212 218 216 221 226 232 237 235 234 237 237 221 213 211 217 222 224 229 229 229 228
207 208 216 217 215 210 201 198 195 190 189 186 188 196 198 204 212 218 215 201 202 218 234 236 229 231 240 242 240 240 242 245 242 233 222 215 216 220 220 225 229 227 228
Height
1472 1474 1475 1476 1478 1479 1480 1481 1483 1485 1487 1489 1491 1493 1495 1497 1499 1501 1502 1503 1505 1506 1508 1509 1511 1512 1514 1515 1516 1518 1519 1520 1519 1519 1521 1521 1522 1523 1523 1524 1524 1524 1524
1469 1470 1471 1471 1473 1474 1475 1477 1478 1480 1482 1484 1486 1488 1490 1492 1494 1495 1497 1498 1500 1501 1502 1504 1505 1507 1508 1509 1511 1512 1513 1514 1515 1514 1515 1516 1516 1517 1518 1518 1518 1518 1519
1465 1465 1466 1467 1468 1469 1470 1472 1474 1475 1477 1479 1481 1483 1485 1486 1488 1490 1492 1493 1495 1496 1497 1498 1500 1501 1502 1503 1505 1506 1508 1509 1509 1509 1509 1510 1511 1512 1512 1513 1513 1513 1513
1461 1460 1461 1462 1463 1464 1465 1467 1468 1470 1472 1474 1475 1477 1479 1481 1482 1484 1486 1488 1489 1490 1492 1493 1494 1495 1497 1498 1499 1500 1502 1502 1503 1504 1504 1505 1505 1506 1506 1507 1507 1507 1507
1456 1456 1457 1458 1459 1459 1460 1461 1463 1465 1466 1468 1470 1471 1473 1475 1476 1478 1480 1482 1483 1485 1486 1487 1489 1490 1491 1492 1493 1494 1495 1496 1497 1498 1498 1499 1499 1500 1500 1501 1501 1502 1502
1452 1452 1453 1453 1454 1455 1455 1456 1458 1459 1461 1463 1464 1466 1467 1469 1471 1473 1474 1476 1477 1479 1480 1481 1483 1484 1485 1486 1487 1488 1490 1490 1491 1492 1492 1492 1493 1494 1494 1495 1496 1496 1496
1448 1448 1448 1448 1449 1450 1450 1451 1452 1453 1455 1457 1458 1460 1461 1463 1465 1467 1468 1470 1471 1473 1474 1475 1477 1478 1479 1480 1481 1482 1483 1484 1485 1486 1486 1486 1487 1488 1489 1490 1490 1490 1491
1444 1444 1444 1444 1444 1445 1445 1446 1447 1448 1449 1451 1452 1454 1455 1457 1459 1461 1463 1464 1465 1467 1468 1470 1471 1472 1473 1474 1475 1476 1476 1477 1478 1479 1480 1481 1482 1483 1483 1484 1485 1485 1486
1441 1440 1440 1440 1440 1440 1440 1441 1442 1443 1444 1446 1447 1449 1450 1451 1454 1456 1457 1458 1460 1461 1463 1464 1465 1466 1467 1468 1469 1470 1471 1471 1472 1473 1474 1475 1475 1476 1477 1478 1479 1480 1479
1437 1436 1437 1436 1436 1436 1437 1437 1438 1439 1440 1441 1442 1444 1445 1446 1448 1450 1452 1453 1454 1455 1457 1458 1459 1460 1462 1462 1464 1464 1465 1465 1466 1467 1468 1469 1469 1470 1471 1473 1473 1474 1474
1434 1433 1433 1433 1432 1432 1433 1433 1434 1434 1436 1437 1438 1439 1440 1442 1443 1445 1447 1448 1449 1450 1451 1452 1454 1455 1456 1457 1458 1459 1459 1460 1461 1461 1462 1462 1463 1464 1465 1467 1468 1469 1469
1431 1430 1429 1429 1429 1429 1429 1429 1430 1431 1432 1432 1433 1435 1436 1438 1439 1440 1442 1444 1445 1446 1447 1448 1449 1450 1451 1452 1453 1454 1455 1455 1456 1456 1456 1457 1458 1459 1460 1462 1463 1463 1464
1427 1427 1426 1426 1426 1426 1426 1426 1427 1427 1428 1428 1430 1430 1432 1433 1435 1437 1438 1439 1440 1442 1443 1444 1445 1446 1447 1448 1448 1449 1450 1450 1451 1451 1451 1452 1453 1455 1456 1457 1457 1458 1459
1424 1424 1423 1423 1423 1423 1423 1423 1423 1424 1424 1425 1426 1427 1428 1430 1431 1432 1433 1435 1436 1438 1439 1440 1441 1442 1443 1444 1444 1445 1446 1446 1447 1447 1447 1448 1449 1450 1451 1452 1452 1453 1454
1422 1421 1421 1420 1420 1420 1420 1420 1420 1421 1422 1422 1423 1424 1425 1426 1427 1429 1430 1431 1432 1434 1435 1436 1437 1438 1438 1439 1440 1441 1442 1442 1443 1443 1444 1444 1444 1445 1446 1448 1448 1449 1450
1419 1419 1418 1418 1418 1418 1418 1418 1418 1419 1419 1420 1421 1422 1423 1424 1425 1426 1427 1428 1429 1430 1431 1432 1433 1434 1435 1436 1436 1437 1438 1439 1439 1440 1440 1440 1441 1441 1442 1443 1445 1445 1446
1418 1417 1416 1416 1416 1416 1415 1415 1415 1416 1417 1418 1418 1419 1420 1421 1422 1423 1424 1425 1426 1427 1428 1429 1430 1431 1432 1433 1433 1434 1435 1436 1436 1437 1437 1437 1437 1438 1438 1439 1441 1442 1442
1416 1415 1415 1414 1414 1414 1414 1414 1413 1413 1414 1415 1416 1417 1418 1419 1419 1420 1421 1422 1423 1424 1425 1426 1427 1428 1429 1430 1431 1432 1432 1433 1433 1434 1434 1434 1435 1435 1435 1436 1437 1438 1439
1414 1413 1413 1412 1412 1412 1412 1412 1412 1412 1412 1413 1414 1415 1416 1416 1417 1418 1419 1420 1421 1422 1423 1424 1425 1426 1427 1428 1428 1429 1430 1430 1431 1431 1431 1432 1432 1432 1432 1433 1434 1435 1436
1412 1412 1411 1411 1410 1410 1410 1410 1410 1410 1410 1411 1412 1413 1414 1415 1415 1416 1417 1418 1419 1420 1421 1422 1423 1424 1424 1425 1426 1426 1427 1428 1428 1429 1429 1429 1430 1430 1430 1430 1430 1431 1432
1410 1410 1409 1409 1409 1408 1408 1408 1408 1408 1408 1409 1410 1411 1412 1413 1413 1414 1415 1416 1417 1418 1419 1420 1421 1422 1422 1422 1423 1424 1424 1425 1426 1426 1427 1427 1427 1427 1427 1427 1427 1428 1429
1408 1408 1407 1407 1407 1407 1407 1406 1406 1406 1407 1408 1408 1409 1410 1411 1411 1412 1413 1414 1415 1416 1417 1417 1418 1419 1419 1420 1420 1421 1422 1422 1423 1423 1424 1424 1424 1424 1424 1424 1425 1425 1426
1407 1406 1406 1406 1406 1406 1405 1405 1405 1405 1406 1406 1407 1408 1408 1409 1410 1410 1411 1412 1412 1413 1414 1415 1415 1416 1417 1417 1418 1418 1419 1419 1420 1420 1421 1421 1421 1421 1421 1421 1422 1422 1423
1405 1405 1404 1404 1404 1404 1404 1404 1404 1404 1404 1405 1405 1406 1407 1407 1408 1408 1409 1409 1410 1411 1411 1412 1413 1413 1414 1414 1415 1415 1416 1417 1417 1417 1418 1418 1418 1418 1418 1419 1419 1420 1420
1403 1403 1403 1403 1403 1403 1403 1403 1403 1403 1403 1403 1404 1404 1405 1405 1406 1406 1407 1407 1408 1408 1409 1409 1410 1410 1411 1411 1411 1412 1413 1413 1414 1414 1414 1415 1415 1415 1416 1416 1416 1417 1417
1401 1401 1401 1401 1401 1401 1401 1401 1402 1402 1402 1402 1402 1403 1403 1403 1403 1404 1404 1405 1405 1405 1406 1406 1406 1407 1407 1408 1408 1409 1409 1410 1410 1411 1411 1411 1412 1412 1412 1413 1413 1413 1414